Weather History for Ardmore, OK

Change the Weather History Date:

Saturday, November 24, 2012

  Actual Average Record
Temperature  
Mean Temperature 34 °F -  
Max Temperature 44 °F 59 °F 80 °F (2010)
Min Temperature 24 °F 40 °F 24 °F (2003)
Degree Days  
Heating Degree Days 31    
Moisture  
Dew Point 25 °F    
Average Humidity 77    
Maximum Humidity 100    
Minimum Humidity 49    
Precipitation  
Precipitation 0.00 in - - ()
Sea Level Pressure  
Sea Level Pressure 30.35 in    
Wind  
Wind Speed 1 mph (ESE)    
Max Wind Speed 6 mph    
Max Gust Speed -    
Visibility 10 miles    
Events      
Averages and records for this station are not official NWS values.
T = Trace of Precipitation, MM = Missing Value Source: NWS Daily Summary

Daily Weather History Graph

Daily Weather History Graph

Search for Another Location

Airport:

Trip Planner

Search our weather history database for the weather conditions in past years. The results will help you decide how hot, cold, wet, or windy it might be!

Date:

Astronomy

Nov. 24, 2012 Rise Set
Actual Time 7:10 AM CST 5:19 PM CST
Civil Twilight 6:42 AM CST 5:46 PM CST
Nautical Twilight 6:12 AM CST 6:17 PM CST
Astronomical Twilight 5:42 AM CST 6:47 PM CST
Moon 2:58 PM CST (11/24) 3:35 AM CST (11/24)
Length of Visible Light 11h 03m
Length of Day
10h 09m
Waxing Gibbous, 87% of the Moon is Illuminated
Nov 24
Waxing Gibbous
Nov 28
Full
Dec 6
Last Quarter
Dec 13
New
Dec 19
First Quarter

Hourly Weather History & Observations

Time (CST) Temp. Windchill Dew Point Humidity Pressure Visibility Wind Dir Wind Speed Gust Speed Precip Events Conditions
12:15 AM 33.8 °F - 24.8 °F 70% 30.45 in 10.0 mi Calm Calm - N/A   Clear
12:35 AM 33.8 °F - 24.8 °F 70% 30.44 in 10.0 mi Calm Calm - N/A   Clear
12:55 AM 32.0 °F - 23.0 °F 69% 30.43 in 10.0 mi Calm Calm - N/A   Clear
1:15 AM 32.0 °F - 24.8 °F 75% 30.43 in 10.0 mi Calm Calm - N/A   Clear
1:35 AM 32.0 °F - 23.0 °F 69% 30.44 in 10.0 mi Calm Calm - N/A   Clear
1:55 AM 30.2 °F - 26.6 °F 86% 30.43 in 10.0 mi Calm Calm - N/A   Clear
2:35 AM 28.4 °F - 26.6 °F 93% 30.43 in 10.0 mi Calm Calm - N/A   Clear
2:55 AM 28.4 °F - 24.8 °F 86% 30.43 in 10.0 mi Calm Calm - N/A   Clear
3:15 AM 28.4 °F 24.6 °F 24.8 °F 86% 30.43 in 10.0 mi WNW 3.5 mph - N/A   Clear
3:55 AM 28.4 °F 24.6 °F 23.0 °F 80% 30.42 in 10.0 mi West 3.5 mph - N/A   Clear
4:15 AM 28.4 °F - 23.0 °F 80% 30.41 in 10.0 mi Calm Calm - N/A   Clear
4:35 AM 26.6 °F - 23.0 °F 86% 30.40 in 10.0 mi Calm Calm - N/A   Clear
4:55 AM 26.6 °F - 23.0 °F 86% 30.40 in 10.0 mi Calm Calm - N/A   Clear
5:15 AM 26.6 °F - 26.6 °F 100% 30.41 in 10.0 mi Calm Calm - N/A   Clear
5:35 AM 26.6 °F - 26.6 °F 100% 30.41 in 10.0 mi Calm Calm - N/A   Clear
6:55 AM 24.8 °F - 23.0 °F 93% 30.41 in 10.0 mi Calm Calm - N/A   Clear
7:55 AM 26.6 °F - 24.8 °F 93% 30.40 in 10.0 mi Calm Calm - N/A   Clear
8:55 AM 35.6 °F - 30.2 °F 81% 30.40 in 10.0 mi Calm Calm - N/A   Clear
10:35 PM 44.6 °F 43.1 °F 26.6 °F 49% 30.10 in 10.0 mi SE 3.5 mph - N/A   Clear
10:55 PM 44.6 °F 43.1 °F 26.6 °F 49% 30.10 in 10.0 mi ESE 3.5 mph - N/A   Clear
11:15 PM 42.8 °F 41.1 °F 26.6 °F 53% 30.09 in 10.0 mi ESE 3.5 mph - N/A   Clear
11:35 PM 42.8 °F 40.1 °F 26.6 °F 53% 30.09 in 10.0 mi East 4.6 mph - N/A   Clear
11:55 PM 41.0 °F 37.1 °F 26.6 °F 57% 30.08 in 10.0 mi East 5.8 mph - N/A   Clear